This is the latest recevied weather packets stored in our database for station/object N8XE-13. If no packets are shown the sender has not sent any weather packets the latest 10 day(s).
| Time | Temp. | Humidity | Pressure | Rain* | Wind** | Luminosity | Snow |
|---|---|---|---|---|---|---|---|
| 1777735578 | 7.78° C | 55% | - | 0 mm | - | - | - |
| 1777735275 | 7.22° C | 59% | - | 0 mm | - | - | - |
| 1777734972 | 7.22° C | 61% | - | 0 mm | - | - | - |
| 1777734670 | 7.78° C | 60% | - | 0 mm | - | - | - |
| 1777734367 | 7.22° C | 61% | - | 0 mm | - | - | - |
| 1777734063 | 6.67° C | 63% | - | 0 mm | - | - | - |
| 1777733760 | 6.67° C | 61% | - | 0 mm | - | - | - |
| 1777733456 | 6.67° C | 64% | - | 0 mm | - | - | - |
| 1777733152 | 6.67° C | 63% | - | 0 mm | - | - | - |
| 1777732849 | 6.67° C | 64% | - | 0 mm | - | - | - |
| 1777732545 | 6.11° C | 63% | - | 0 mm | - | - | - |
| 1777732244 | 6.67° C | 61% | - | 0 mm | - | - | - |
| 1777731940 | 6.11° C | 67% | - | 0 mm | - | - | - |
| 1777731637 | 6.11° C | 66% | - | 0 mm | - | - | - |
| 1777731335 | 6.11° C | 68% | - | 0 mm | - | - | - |
| 1777731032 | 6.67° C | 68% | - | 0 mm | - | - | - |
| 1777730731 | 6.11° C | 70% | - | 0 mm | - | - | - |
| 1777730427 | 6.11° C | 72% | - | 0 mm | - | - | - |
| 1777730122 | 5.56° C | 72% | - | 0 mm | - | - | - |
| 1777729819 | 5.56° C | 72% | - | 0 mm | - | - | - |
| 1777729516 | 5.56° C | 72% | - | 0 mm | - | - | - |
| 1777729213 | 5.56° C | 74% | - | 0 mm | - | - | - |
| 1777728910 | 5.56° C | 74% | - | 0 mm | - | - | - |
| 1777728607 | 5.56° C | 74% | - | 0 mm | - | - | - |
| 1777728304 | 5° C | 74% | - | 0 mm | - | - | - |
* Rain latest hour (hover to see other rain measurements)
** Current wind speed in m/s (hover to see current wind gust speed)